CST,Max TemperatureF,Mean TemperatureF,Min TemperatureF,Max Dew PointF,MeanDew PointF,Min DewpointF,Max Humidity, Mean Humidity, Min Humidity, Max Sea Level PressureIn, Mean Sea Level PressureIn, Min Sea Level PressureIn, Max VisibilityMiles, Mean VisibilityMiles, Min VisibilityMiles, Max Wind SpeedMPH, Mean Wind SpeedMPH, Max Gust SpeedMPH,PrecipitationIn, CloudCover, Events, WindDirDegrees
2012-11-1,67,52,38,41,38,32,79,57,36,30.05,29.98,29.90,10,10,10,14,8,,0.00,0,,74
2012-11-2,53,42,32,42,37,31,97,82,60,30.12,29.95,29.84,10,6,0,22,9,28,0.00,1,Fog,27
2012-11-3,60,44,29,40,34,28,95,73,42,30.23,30.17,30.11,10,9,5,12,6,,0.00,1,,351
2012-11-4,63,50,37,42,36,32,86,65,33,30.15,30.08,30.01,10,10,10,14,7,17,0.00,2,Rain,259
2012-11-5,50,44,39,39,35,32,88,72,55,30.21,30.13,30.02,10,10,5,20,10,26,0.00,3,,344
2012-11-6,61,48,36,38,26,18,83,49,19,30.18,30.11,30.00,10,10,10,24,10,32,0.00,1,,311
2012-11-7,60,44,28,29,25,20,71,48,27,30.16,30.05,29.91,10,10,10,20,8,24,0.00,0,,172
2012-11-8,64,50,36,32,30,27,74,52,29,29.91,29.87,29.84,10,10,10,14,9,17,0.00,0,,60
2012-11-9,46,40,34,40,36,29,95,87,73,29.84,29.74,29.59,10,5,0,17,9,16,0.00,4,Fog,24
2012-11-10,79,54,29,46,35,23,99,74,20,29.78,29.55,29.37,10,6,0,36,10,47,0.00,3,Fog-Rain-Thunderstorm,277
2012-11-11,35,27,19,22,11,7,75,54,36,30.21,30.02,29.79,10,10,10,22,15,31,0.00,1,,315
2012-11-12,46,32,19,14,9,4,68,43,17,30.32,30.28,30.20,10,10,10,21,11,29,0.00,0,,273
2012-11-13,56,40,25,20,11,5,56,33,14,30.32,30.24,30.17,10,10,10,12,7,18,0.00,0,,194
2012-11-14,58,40,23,26,21,15,83,50,25,30.29,30.21,30.13,10,10,10,14,6,18,0.00,0,,217
2012-11-15,59,43,27,29,25,18,71,47,28,30.42,30.29,30.14,10,10,2,20,7,26,0.00,1,,28
2012-11-16,56,40,24,34,29,18,91,66,39,30.43,30.30,30.19,10,10,10,17,7,26,0.00,0,,162
2012-11-17,61,48,36,36,33,30,78,61,36,30.19,30.10,30.05,10,10,10,23,12,28,0.00,0,,175
2012-11-18,61,50,38,38,34,31,84,65,38,30.06,29.99,29.93,10,10,10,16,9,24,0.00,0,,174
2012-11-19,65,50,34,36,32,25,83,56,29,30.19,30.09,29.97,10,10,10,14,8,21,0.00,0,,296
2012-11-20,70,48,26,32,30,22,82,49,24,30.22,30.16,30.09,10,10,10,17,7,23,0.00,0,,203
2012-11-21,71,54,38,36,31,24,78,48,17,30.09,29.94,29.77,10,10,10,24,11,31,0.00,0,,194
2012-11-22,58,45,31,36,28,19,73,52,32,30.38,29.98,29.76,10,10,10,26,10,33,0.00,0,,313
2012-11-23,41,32,22,22,14,9,68,49,32,30.55,30.42,30.30,10,10,10,14,8,21,0.00,0,,280
2012-11-24,55,39,23,22,19,14,68,48,25,30.28,29.98,29.83,10,10,7,17,9,23,0.00,0,,195
2012-11-25,51,40,30,32,24,18,72,54,37,30.09,29.97,29.91,10,10,10,14,9,16,0.00,0,,31
2012-11-26,35,26,18,25,22,15,92,75,65,30.41,30.31,30.09,10,10,4,20,11,24,0.00,2,Snow,30
2012-11-27,48,33,18,26,21,16,92,73,38,30.38,30.23,30.13,10,10,7,16,8,28,0.00,0,,241
2012-11-28,50,32,15,28,22,13,89,67,39,30.30,30.19,30.02,10,10,7,15,6,20,0.00,0,,206
2012-11-29,62,42,21,27,22,17,89,54,21,30.02,29.96,29.89,10,10,7,10,4,,0.00,0,,235
2012-11-30,54,40,27,31,26,18,80,62,39,30.07,29.99,29.88,10,10,10,13,6,,0.00,0,,109